Regional Weather Roundup
Issued by NWS Wakefield, VA

Home | Current Version | Previous Version | Text Only | Print | Product List | Glossary Off
Versions: 1 2 3 4 5 6 7 8 9 10 11 12 13 14 15 16 17 18 19 20 21 22 23 24 25 26 27 28 29 30 31 32 33 34 35 36 37 38 39 40 41 42 43 44 45 46 47 48 49 50

000
ASUS41 KAKQ 142210
RWRAKQ

REGIONAL WEATHER ROUNDUP
NATIONAL WEATHER SERVICE WAKEFIELD VA
600 PM EDT SUN SEP 14 2014

Note: "fair" indicates few or no clouds below 12,000 feet with no
significant weather and/or obstructions to visibility. * = Denotes
station may not report precipitation (e.g., rain,snow,etc.),
thunder or fog.

VAZ042-051-052>054-056-142300-
NORTHERN VIRGINIA

CITY           SKY/WX    TMP DP  RH WIND       PRES   REMARKS
WASH NATIONAL  PTSUNNY   70  46  42 N7        30.22F
DULLES         PTSUNNY   66  49  54 CALM      30.22F
FORT BELVOIR   NOT AVBL
QUANTICO       MOSUNNY   69  49  48 CALM      30.23S
FREDERICKSBRG* CLOUDY    69  53  55 E3        30.21S
STAFFORD*      CLOUDY    67  52  59 CALM      30.26S
WARRENTON      MOSUNNY   70  56  61 SE5       30.21F
CULPEPER*      CLOUDY   N/A N/A N/A CALM      30.22S
MANASSAS*      SUNNY     68  50  52 SW3       30.22F
LEESBURG*      MOSUNNY   68  52  56 W3        30.23S
WINCHESTER     MOSUNNY   64  46  52 E7        30.22S
FRONT ROYAL*   MOCLDY    68  52  56 S5        30.20S
LURAY*         CLOUDY    66  52  59 SW5       30.22S
$$

VAZ048-049-060>072-079>083-142300-
CENTRAL AND SOUTH CENTRAL VIRGINIA...AND NORTH CENTRAL NORTH CAROLINA

CITY           SKY/WX    TMP DP  RH WIND       PRES   REMARKS
RICHMOND       PTSUNNY   72  52  49 CALM      30.22S
CHESTERFIELD*  CLOUDY   N/A N/A N/A SW6       30.23F
PETERSBURG*    CLOUDY    65  56  75 SW6       30.23F
HANOVER        CLOUDY    70  54  56 W5        30.23F
TAPPAHANNOCK*  MOSUNNY   72  49  44 CALM      30.22S
CHARLOTTSVILLE CLOUDY    66  52  60 S6        30.22F
ORANGE*        CLOUDY    68  50  52 CALM      30.23F
LOUISA*        CLOUDY    66  54  63 CALM      30.22S
FARMVILLE*     PTSUNNY   68  52  56 S5        30.21S
CREWE*         CLOUDY    69  56  63 CALM      30.23F
FORT PICKETT*  CLOUDY    65  57  76 S5        30.23F
LUNENBURG*     MOCLDY    66  53  63 CALM      30.23F
SOUTH HILL*    MOSUNNY   64  57  77 CALM      30.28F
LAWRENCEVILLE* CLOUDY    63  58  84 CALM      30.23F
ROANOKE RAPIDS CLOUDY    61  59  94 CALM      30.22F
RALEIGH        PTSUNNY   68  58  70 NE5       30.22F
$$

VAZ088>098-142300-
SOUTHEAST VIRGINIA

CITY           SKY/WX    TMP DP  RH WIND       PRES   REMARKS
NORFOLK        CLOUDY    69  54  58 VRB3      30.21S
VIRGINIA BEACH PTSUNNY   69  54  58 N7        30.21R
NORFOLK NAVAL  PTSUNNY   69  55  60 N7        30.23S
WEST POINT*    NOT AVBL
NEWPORT NEWS   CLOUDY    71  57  61 E3        30.21F
LANGLEY AFB    CLOUDY    66  57  72 NE6       30.21S
FORT EUSTIS    NOT AVBL
WILLIAMSBURG*  PTSUNNY   72  61  68 NW3       30.21F
HR EXEC AP*    MOCLDY    68  57  68 CALM      30.23S
FRANKLIN*        N/A     68  61  77 CALM      30.22S
WAKEFIELD      CLOUDY    67  60  78 CALM      30.22F
$$

VAZ020-022-025-037-045-142300-
WEST CENTRAL AND SOUTHWEST VIRGINIA

CITY           SKY/WX    TMP DP  RH WIND       PRES   REMARKS
STAUNTON*      CLOUDY    66  49  55 SW5       30.25S
HOT SPRINGS VA NOT AVBL
LYNCHBURG      MOSUNNY   66  52  60 S7        30.25S
DANVILLE       CLOUDY    68  54  60 NE5       30.24S
SOUTH BOSTON*  NOT AVBL
MARTINSVILLE   CLOUDY    67  57  69 CALM      30.26F
ROANOKE        PTSUNNY   66  53  63 S6        30.25S
BLACKSBURG     CLOUDY    64  59  82 CALM      30.27S
DUBLIN*        CLOUDY    65  58  78 SW3       30.26F
MARION*        CLOUDY    64  57  80 NE5       30.28S
HILLSVILLE*    CLOUDY    60  55  86 CALM      30.26F
RICHLANDS*     CLOUDY    67  61  81 CALM      30.24S
WISE*          CLOUDY    64  63  94 N7        30.25S
ABINGDON*      CLOUDY    65  62  88 CALM      30.23F
$$

MDZ021>025-VAZ099-100-142300-
SOUTHERN MARYLAND AND THE DELMARVA PENINSULA

CITY           SKY/WX    TMP DP  RH WIND       PRES   REMARKS
PATUXENT RIVER PTSUNNY   66  51  58 E5        30.21F
BAY BRIDGE APT   N/A     68  48  49 CALM      30.22S
LEONARDTOWN    MOSUNNY   66  52  59 CALM      30.23S
DOVER          NOT AVBL
GEORGETOWN     MOSUNNY   67  52  58 E10       30.21S
EASTON         PTSUNNY   68  52  56 CALM      30.25F
CAMBRIDGE      PTSUNNY   70  50  49 CALM      30.22S
SALISBURY      MOSUNNY   71  50  47 NW7       30.21S
OCEAN CITY     SUNNY     67  53  61 E7        30.21S
WALLOPS ISLAND MOSUNNY   68  55  63 VRB5      30.21S
ACCOMACK*      CLOUDY    66  50  55 NW3       30.21S
$$

NCZ012>017-030>032-142300-
EASTERN NORTH CAROLINA

CITY           SKY/WX    TMP DP  RH WIND       PRES   REMARKS
ELIZABETH CITY MOSUNNY   70  57  63 NE10      30.21R
AHOSKIE*       PTSUNNY   68  60  75 N5        30.22S
EDENTON*       MOSUNNY   73  61  66 E5        30.20S
CURRITUCK*     MOSUNNY   71  54  55 NE6       30.22R
KILL DEVIL HLS CLOUDY    68  58  69 NE7       30.20R
MANTEO         CLOUDY    69  58  69 N12       30.21R
CAPE HATTERAS  CLOUDY    69  65  86 NE9       30.19R
TARBORO*       MOCLDY    72  63  72 N6        30.22S
GOLDSBORO      NOT AVBL
WASHINGTON     MOSUNNY   73  62  68 N7        30.20R
GREENVILLE     CLOUDY    72  63  73 N6        30.21S
NEW BERN       CLOUDY    75  65  70 NE7       30.20S
WILMINGTON     CLOUDY    73  67  81 N9        30.17F
$$

VAZ048-142300-
ELSEWHERE

CITY           SKY/WX    TMP DP  RH WIND       PRES   REMARKS
HARRISBURG PA  PTSUNNY   65  45  48 N6        30.21F
BALTIMORE      PTSUNNY   67  48  50 NW3       30.21S
ANNAPOLIS      PTSUNNY   65  50  58 SE6       30.21F
ANDREWS AFB    NOT AVBL
WILMINGTON DE  PTSUNNY   66  49  54 W7        30.21F
PHILADELPHIA   PTSUNNY   68  48  48 SW9       30.20S
WILDWOOD NJ*   PTSUNNY   64  46  52 CALM      30.22F
ATLANTIC CITY  CLOUDY    64  54  69 S7        30.21R
HENDERSON NC   MOSUNNY   64  56  75 NE3       30.24S
GREENSBORO     PTSUNNY   69  55  60 NE7       30.22F
ROCKY MOUNT    PTSUNNY   70  61  73 N10       30.21S
FAYETTEVILLE   CLOUDY    72  64  76 NE3       30.19F
CHARLOTTE      CLOUDY    69  57  65 NE6       30.22F
$$

VAZ100-142300-
MARINE

STATION/POSITION TIME  TEMP    WIND        PRES    WAVE   SWELL
                       AIR SEA DIR/SP/G            HT/PER HT/PER
                 (UTC) (F)     (DEG/KT/KT) (MB)    (FT/S) (FT/S)
44066 TX TWR #4  2200   63 73  340/  4/  6 1022.5S   3/ 5   3/ 5
CAPE MAY NJ      2200   65 76   20/  1/  3 1022.4F
LEWES DE         2200   66 72  360/  6/  8 1022.6F
15NM E FENWICK I 2200   65 73              1022.9F   3/ 7
OCEAN-CITY-INLET 2200   66 72   70/  6/  9 1022.5R
WACHAPREAGUE VA  2200   69 74  320/  3/  6 1023.0F
THOMAS POINT MD  2200   65 75  120/  4/  5 1024.0F
GOOSES REEF MD   2200   67     140/  4/  6 1023.6F
COVE POINT MD    2200   66      40/  5/  7 1022.9F
SOLOMONS ISLAND  2200      77                N/A
BISHOPS HEAD MD  2200   68 73   10/  4/  8 1022.6F
PINEY POINT MD   2200           10/  4/  5   N/A
POTOMAC MD       2200   67      70/  4/  8 1022.5S
CAMBRIDGE MD     2200   68 75   30/  3/  5 1022.8F
LEWISETTA VA     2200   67 72  110/  6/  8 1022.6F
RAPPAHANNOCK LGT 2200          360/  8/ 11 1023.6F
STINGRAY PT      2200   67      10/  6/ 10   N/A
YORK RVR RNG VA  2200   67      40/  9/ 10 1022.5F
YORKTOWN VA      2200   68 78   40/  6/  8 1022.7F
JAMESTOWN VA     2200   68     360/  4/  8   N/A
DOMINION TERM VA 2200   69      60/  6/  8 1023.1S
KIPTOPEKE VA     2200      78   20/  6/  8   N/A
CHES BAY BRIDGE  2200   68 76   10/  7/ 11 1022.6S
CAPE HENRY VA    2200   68     350/  9/ 12 1021.7F
CHESAPEAKE LGHT  2100   67      20/ 10/ 12 1023.4F
WILLOUBY STN VA  2200   67      20/  7/  8 1021.8S
S CRANEY ISL VA  2200           20/  8/  9 1022.7F
CAPE HENRY BUOY  2200      76                N/A     3/ 7
1ST LANDING BUOY 2200   69      10/ 10/ 14 1022.6S
CAPE CHARLES BUO 2200      76                N/A     3/ 7   2/ 7
OFFSHORE WE BUOY 2200      75                N/A     4/ 7   3/ 7
64NM E OF VA BCH 2200   71 80   10/ 14/ 16 1021.8R   4/ 7   3/ 7
DUCK PIER NC     2200   69 77   10/ 16/ 19 1021.8S
44100 DUCK FRF   2200      75                N/A     5/ 7
44056 DUCK FRF   2200                        N/A     4/ 7
OREGON INLET NC  2200   70 77  360/  9/ 13 1022.5R
HATTERAS NC      2200   72 80   10/ 16/ 19 1022.4R
DIAMOND SHLS NC  2200   74     360/ 17/ 21 1021.2R   4/ 8   2/ 8
CAPE LOOKOUT NC  2100   75      30/ 12/ 16 1021.4S
$$



USA.gov is the U.S. government's official web portal to all federal, state and local government web resources and services.